Location: ?????????
(44.2517°N, 135.2292°E)
Time: 03:09:57
(UTC+00:00)

Meteor 1-26 Rocket - Pass Details

Date: 19 May 2025
Orbit: 805 x 928 km, 81.3° (Epoch: 14 June)

Event Time Altitude Azimuth Distance (km) Brightness Sun altitude
Exits shadow 12:22:17 15° 187° (S) 2,214 6.0 -16.9°
Maximum altitude 12:27:14 88° 98° (E) 912 4.3 -17.4°
Drops below altitude 10° 12:33:16 10° 11° (N) 2,625 7.4 -18.1°
Sets 12:35:46 0° 11° (N) 3,580 8.1 -18.3°
